User: anonymous   Login
Location: Newark
(46.9000°N, 28.3500°E)
Time: 20:56:28
(UTC+00:00)
Language:

SR - Orbit

View from above orbital plane
View from above orbital plane
View from above satellite
View from above satellite

Ground track
Ground track

The orbit data is extracted from the following two-line orbital elements,

1    46U 60007B   19230.95741257 -.00000032 +00000-0 +16886-4 0  9997
2    46 066.6906 146.5685 0210778 355.3155 004.5973 14.49238810095138
Epoch (UTC): 18 August 2019 22:58:40
Eccentricity: 0.0210778
inclination: 66.6906°
perigee height: 578 km
apogee height: 878 km
right ascension of ascending node: 146.5685°
argument of perigee: 355.3155°
revolutions per day: 14.49238810
mean anomaly at epoch: 4.5973°
orbit number at epoch: 9513

The dashed part of the orbit path shows where the satellite is in the earth's shadow,  

DLR